Regional Weather Roundup
Issued by NWS Upton, NY

Current Version | Previous Version | Text Only | Print | Product List | Glossary On
Versions: 1 2 3 4 5 6 7 8 9 10 11 12 13 14 15 16 17 18 19 20 21 22 23 24 25 26 27 28 29 30 31 32 33 34 35 36 37 38 39 40 41 42 43 44 45 46 47 48 49 50
000
ASUS41 KOKX 301308
RWROKX

REGIONAL WEATHER ROUNDUP
NATIONAL WEATHER SERVICE NEW YORK NY
900 AM EDT SUN APR 30 2017

NOTE: "FAIR" INDICATES FEW OR NO CLOUDS BELOW 12,000 FEET WITH NO
SIGNIFICANT WEATHER AND/OR OBSTRUCTIONS TO VISIBILITY.

NYZ071-072-176-178-NJZ106-104-301400-
NEW YORK CITY METRO AREA

CITY           SKY/WX    TMP DP  RH WIND       PRES   REMARKS
Central Park   PTSUNNY   60  38  43 SE7       30.27R
Wall St Helipt CLOUDY    59  40  49 NE14      30.24S
Bronx Bot Gard   N/A     59  36  41 E9        30.26S
LaGuardia APRT CLOUDY    60  38  43 NE12      30.24R
Kennedy INTL   PTSUNNY   62  40  44 E10       30.25R
Breezy Point     N/A     57 N/A N/A NE12        N/A
Newark/Liberty PTSUNNY   60  39  45 NE10      30.23R
Teterboro      PTSUNNY   59  39  47 VRB5      30.24R
$$

NYZ177-179-078>081-301400-
LONG ISLAND NEW YORK

CITY           SKY/WX    TMP DP  RH WIND       PRES   REMARKS
Jones Beach      N/A     57 N/A N/A NE9         N/A
Matinecock PT  NOT AVBL
Farmingdale    MOSUNNY   59  40  49 NE8       30.25R
MacArthur/ISP  CLOUDY    59  39  47 NE12      30.25R
Shirley        NOT AVBL
Mt Sinai Harb    N/A     55 N/A N/A NE1         N/A
Westhampton    PTSUNNY   61  40  45 NE9       30.27R
East Hampton   CLOUDY    59  39  47 NE10G16   30.26R
Montauk        NOT AVBL
$$

NYZ052-065-067-301400-
HUDSON VALLEY

CITY           SKY/WX    TMP DP  RH WIND       PRES   REMARKS
White Plains   PTSUNNY   58  37  45 VRB5      30.25R
Larchmont Harb   N/A     54 N/A N/A NE9         N/A
Croton O-T Hud   N/A     57 N/A N/A E1          N/A
Newburgh       PTSUNNY   54  39  58 NE12      30.27R
Montgomery     CLOUDY    54  36  50 NE12      30.24S
Poughkeepsie   CLOUDY    52  35  52 N8        30.25S
Albany         CLOUDY    46  27  47 N10       30.30F
$$

NJZ001-105-106-008-010-013-015-019>022-104-301400-
NEW JERSEY

CITY           SKY/WX    TMP DP  RH WIND       PRES   REMARKS
Newark/Liberty PTSUNNY   60  39  45 NE10      30.23R
Teterboro      PTSUNNY   59  39  47 VRB5      30.24R
Caldwell       CLOUDY    58  39  49 NE8       30.24S
Somerville     CLOUDY    61  40  45 NE7       30.20S
Linden         CLOUDY    62  36  37 E13       30.23F
Perth Amboy      N/A     61 N/A N/A E9          N/A
Sussex         PTSUNNY   56  39  53 NE8       30.24F
Andover          N/A     57  37  47 VRB3      30.23R
Trenton        CLOUDY    64  49  57 E12G20    30.20S
Millville      CLOUDY    68  55  63 E13       30.19R
Atlantic City  CLOUDY    64  49  57 E17       30.20R
Wrightstown    CLOUDY    63  44  50 E14       30.19R
Toms River     CLOUDY    61  42  49 NE15G21   30.24R
Belmar         CLOUDY    61  41  47 NE12G18   30.24R
$$

PAZ047>061-062-071-301400-
EASTERN PENNSYLVANIA

CITY           SKY/WX    TMP DP  RH WIND       PRES   REMARKS
Philadelphia   CLOUDY    65  49  56 E7        30.21R
Allentown      CLOUDY    60  44  55 NE7       30.21S
Scranton       CLOUDY    56  39  53 NE3       30.18F
$$

CTZ002-004>006-009-010-012-RIZ004-006-007-MAZ004-011-015-301400-
SOUTHERN NEW ENGLAND
 IN CT

CITY           SKY/WX    TMP DP  RH WIND       PRES   REMARKS
Bradley INTL   MOSUNNY   55  32  41 NE10      30.28R
Hartford       SUNNY     57  37  47 NE8       30.27R
Danbury        PTSUNNY   54  38  54 NE6       30.27R
Wtrbury/Oxford MOSUNNY   55  36  47 E9        30.26R
Bridgeport     PTSUNNY   59  38  45 NE9       30.26R
Meriden        MOSUNNY   58  35  42 N7        30.27R
New Haven      PTSUNNY   58  38  47 N9        30.26R
Chester          N/A     59  37  44 NE7       30.26R
Groton         PTSUNNY   62  41  46 NE7       30.25R
Wilimantic     SUNNY     60  35  39 NE7       30.27R

 IN RI

CITY           SKY/WX    TMP DP  RH WIND       PRES   REMARKS
Providence     MOSUNNY   58  35  42 NE13      30.28R
Block Island   MOSUNNY   53  43  68 E14       30.28R
Westerly       MOSUNNY   59  43  55 SE14      30.27R
 IN MA

CITY           SKY/WX    TMP DP  RH WIND       PRES   REMARKS
Boston         PTSUNNY   49  36  61 E16       30.30R
Worcester      MOSUNNY   50  27  40 N8        30.26S
Westfield      SUNNY     52  31  44 N10       30.28R
Provincetown   SUNNY     48  34  58 NE15      30.31R
Nantucket      SUNNY     51  36  56 NE20      30.29R
$$

ANZ330-335-338-340-345-350-353-355-301400-
COASTAL MARINE OBSERVATIONS


STATION/POSITION TIME  SKY/WX   TEMP    WIND        PRES    VSBY  WAVE
                                AIR SEA DIR/SP/G                  HT/PER
                 (UTC)          (F)     (DEG/KT/KT) (MB)    (MI)  (FT/S)
NY HARB ENTRANCE 1150            53 50   40/ 12/ 14 1022.9          3/ 7
20 S FIRE ISLAND 1250            52 49   50/ 10/ 12 1023.2          3/ 7
GREAT SOUTH BAY  1215            59 61   40/ 10/ 12   N/A
23 SSW MONTAUK P 1150            51 48              1023.9          3/ 7
15 E BARNEGAT LI 1230               55                N/A           3/ 7
HUDSON CANYON    1150            54 50   60/  8/ 10 1022.9          4/ 7
KINGS POINT      1242            57 52   70/  5/  8 1024.3
EXECUTION ROCKS  NOT AVBL
CENTRAL LI SOUND 1215            50      30/  4/  4   N/A           0
EASTERN LI SOUND NOT AVBL
ROBBINS REEF     1242            58      50/ 12/ 13 1024.3
$$


>>>>>>>>>>>>>>>>>>>>>>>>>>>> KEY <<<<<<<<<<<<<<<<<<<<<<<<<<<
>                                                          <
>     SKY/WX - Sky Condition/Present Weather               <
>     TMP    - Temperature in Fahrenheit                   <
>     DP     - Dew Point in Fahrenheit                     <
>     RH     - Relative Humidity in Percent                <
>     WIND   - Direction (from) and Speed in MPH           <
>     PRES   - Mean Sea Level Pressure (inches of Hg)      <
>     WCI    - Wind Chill Index                            <
>     VSB    - VISIBILITY IN MILES                         <
>     HX     - HEAT INDEX                                  <
>     TC     - TEMPERATURE IN CELSIUS                      <
>     VRB    - VARIABLE WIND DIRECTION                     <
>                                                          <
>>>>>>>>>>>>>>>>>>>>>>>>>>>> KEY <<<<<<<<<<<<<<<<<<<<<<<<<<<



USA.gov is the U.S. government's official web portal to all federal, state and local government web resources and services.